Reflectivity
-20 -20 -20 -20 -20 -20 -20 -11 -1 -3 -20 -20 -20 -20 -20 -20 -20 -20 -20 -20 -20 4 -14 -20 -20 -20 -19 -20 -8 3 -20 -20 3
-20 -20 -20 -20 -20 -20 -20 -20 -17 -20 -20 -20 -20 -20 -20 -20 -20 -12 -20 14 3 -20 -20 8 7 -19 -7 11 -1 7 6 9 -19
-20 -20 -20 -20 -20 -20 -20 -20 -20 -20 -20 -20 -20 -20 -20 -20 -20 -20 -20 -5 10 -2 -20 -17 -3 -13 4 1 11 9 5 -20 -7
-20 -20 -20 -20 -20 -20 -20 -20 -20 -20 -20 -20 -20 -20 -20 -20 -20 -20 -20 -20 14 -19 -20 -20 -20 -20 -20 -17 -20 -19 -16 -19 -20
-20 -20 -20 -20 -20 -20 -20 -20 -20 -20 -20 -20 -20 -20 -20 -20 -20 -20 -20 -20 -11 6 -20 -20 -20 -20 -20 -20 -20 -20 -20 -20 -20
-20 -20 -20 -20 -20 -20 -20 -20 -20 -20 -20 -20 -20 -20 -20 -20 -20 -20 -20 -20 2 1 -20 -20 -20 -20 -20 -20 -20 -20 -20 -20 -20
-1 -8 -20 -20 -20 -20 -20 -20 -20 -20 -20 -20 -20 -20 -20 -20 -20 -20 -20 -20 7 13 -20 -20 -20 -20 -20 -20 -20 -20 -20 -20 -20
-20 15 -8 -20 -2 2 -2 -20 -20 -20 -20 -20 -20 -20 -20 -20 -20 -20 -20 -20 -13 11 -6 -20 -20 -20 -20 -20 -20 -20 -20 -20 -20
-20 -19 -20 -17 5 -18 6 4 -20 -20 -20 -20 -20 -20 -20 -20 -20 -20 -20 -20 -20 8 15 -18 -20 -20 -20 -20 -20 -20 -20 -20 -20
-9 -19 -16 -18 -20 -9 -16 -20 -20 -20 -20 -20 -20 -20 -20 -20 -20 -20 -20 -20 -20 -20 1 16 -8 -20 -20 -20 -20 -20 -20 -20 -20
6 4 -13 -2 -17 -13 10 -19 -9 -20 -20 -20 -20 -20 -20 -20 -20 -20 -20 -20 -20 -20 -20 5 14 15 1 -1 5 -11 -5 -20 -20
-20 -20 7 15 17 15 -16 -15 -3 0 -16 -20 -20 -20 -20 -20 -20 -20 -20 -20 -20 -20 -20 -20 -20 -3 12 17 16 14 8 3 5
-20 -20 -20 -20 6 7 8 -18 -20 -15 -7 -20 -20 -20 -11 -19 -20 -20 -20 -20 -20 -20 -20 -20 -20 -20 -20 -6 4 15 8 11 10
-20 -20 -20 -20 -20 -11 19 7 -16 -16 -15 24 -10 -12 -9 -20 -20 -18 -20 -20 -20 -20 -20 -20 -20 -20 -20 -20 -20 -18 1 -0 -13
-20 -20 -20 -20 -20 -20 -13 12 14 6 -3 0 19 19 22 23 20 6 4 -2 -20 -19 -20 -20 -20 -20 -20 -20 -20 -20 -20 -20 -20
-20 -20 -20 -20 -20 -20 -20 -20 30 7 21 16 25 15 29 37 40 29 22 22 -20 -18 -20 -20 -20 -20 -20 -20 -20 -20 -20 -20 -20
-20 -20 -20 -20 -20 -20 -20 -20 -20 14 -4 15 -2 17 6 1 23 43 32 -15 -11 11 33 -16 -20 -20 -20 -20 -20 -20 -20 -20 -20
-20 -20 -20 -20 -20 -20 -20 -20 -20 -18 15 3 24 -8 -15 -20 -20 16 26 28 -20 -20 -17 37 24 -19 -20 -20 -20 -20 -20 -20 -20
-20 -20 -20 -20 -20 -20 -20 -20 -20 -20 -16 8 8 1 15 -20 -9 -20 -20 -20 -20 -20 -20 -20 -10 27 33 3 -20 -20 -20 -20 -20
-20 -20 -20 -20 -20 -20 -20 -20 -20 -20 -13 4 14 13 15 13 9 -11 -20 -20 -20 -20 -20 -20 -20 -20 18 28 13 10 -19 -20 -20
Wind_Speed
10 12 11 11 10 10 10 9 8 7 5 4 6 9 7 4 5 5 6 7 11 10 10 11 10 10 12 11 11 10 11 11 11
10 10 10 10 10 10 9 9 8 6 4 3 5 7 6 4 4 4 5 4 11 10 8 8 9 9 9 10 9 9 10 9 9
8 8 9 9 9 9 9 8 8 7 4 2 3 6 5 4 3 2 3 2 9 9 8 7 6 7 7 7 7 8 7 8 7
9 8 8 8 8 8 8 8 9 7 6 3 2 6 4 4 3 4 2 1 6 9 8 7 5 6 6 5 5 5 5 5 5
7 7 8 8 8 8 8 8 8 8 6 5 4 5 5 4 4 3 3 6 6 7 6 6 6 5 5 5 4 4 3 3 2
5 6 6 8 8 8 9 8 7 7 6 6 6 4 4 5 4 3 5 8 7 7 7 7 6 6 6 5 5 4 4 3 2
5 6 8 9 8 8 8 8 8 7 5 5 6 4 4 5 5 4 7 9 9 8 9 8 8 8 7 7 7 6 6 5 4
4 4 5 6 7 6 7 7 6 7 6 5 6 6 5 4 4 6 9 11 12 10 10 10 10 10 9 9 9 8 8 8 7
5 4 6 6 5 7 7 5 8 8 8 7 8 8 6 5 4 5 9 12 13 12 11 12 12 12 11 11 11 10 10 10 10
4 6 5 5 6 7 8 7 8 9 9 8 8 9 9 9 5 5 8 11 13 14 14 13 14 13 13 13 12 12 12 12 12
4 5 5 7 6 6 7 7 7 8 9 10 10 10 9 10 10 7 6 10 13 15 16 16 15 15 14 14 14 14 14 14 14
7 5 4 6 6 9 7 8 7 6 8 12 11 10 11 10 11 10 8 7 11 15 18 18 17 16 16 16 15 15 16 17 16
6 6 6 5 5 7 7 8 7 8 8 9 9 9 10 12 12 11 9 8 7 9 17 17 18 17 18 18 17 15 15 15 15
7 6 7 9 7 5 6 6 7 7 7 8 8 9 9 11 10 13 13 12 10 8 10 15 17 16 18 20 19 18 15 14 12
7 7 8 8 7 8 7 8 7 7 7 7 9 9 9 8 10 12 10 10 11 11 12 9 10 16 19 21 21 20 18 15 14
8 7 8 8 8 10 11 9 9 7 7 5 7 6 7 7 8 11 11 10 11 11 11 9 9 9 17 19 21 22 21 19 16
10 9 9 9 8 11 12 11 9 7 6 5 3 4 3 7 11 10 12 14 7 8 12 12 13 11 9 12 19 21 23 22 20
10 11 9 9 8 7 10 10 13 9 8 11 6 2 4 3 5 13 11 13 9 10 8 11 14 11 11 10 13 17 20 23 23
11 10 10 10 7 9 9 9 10 10 10 6 9 10 2 3 4 4 4 7 9 10 8 9 8 9 10 11 11 11 19 24 24
12 11 11 10 8 9 10 10 10 9 10 9 6 7 7 7 7 8 6 2 5 5 8 8 9 8 8 7 8 12 20 24 24
Wind_Direction
117 121 119 120 125 138 143 147 140 121 117 102 127 135 122 122 112 119 114 125 126 122 119 119 103 93 97 90 91 93 87 74 79
129 127 127 135 142 149 156 158 153 144 127 82 140 137 129 129 112 110 132 165 126 125 109 108 111 102 100 96 95 96 94 87 84
147 147 150 154 157 159 167 171 169 164 152 90 147 149 150 165 152 143 136 116 144 130 127 126 123 121 109 106 105 95 101 85 77
165 169 172 172 172 172 177 185 185 184 174 137 134 163 165 188 183 179 173 267 129 132 144 153 145 139 129 124 98 111 95 101 92
189 186 192 189 187 184 184 193 198 198 190 169 159 181 185 212 202 214 216 243 178 154 167 171 167 160 152 154 148 147 142 130 116
227 207 211 213 199 196 198 201 202 203 203 201 184 179 214 213 216 221 234 231 202 192 186 187 187 186 186 185 190 195 197 198 186
238 227 216 225 221 215 214 213 209 207 213 212 208 218 214 223 228 228 235 239 225 207 201 200 204 207 208 207 212 218 221 228 231
236 238 226 225 220 228 226 228 229 224 220 220 225 219 222 219 227 240 238 237 241 223 212 215 215 216 219 220 223 230 232 238 242
224 219 230 234 228 226 229 230 236 233 231 227 234 232 225 228 230 236 243 244 241 242 225 224 226 226 225 228 229 232 239 244 248
234 226 213 223 231 232 230 232 238 238 236 235 230 236 233 232 235 240 222 240 244 247 249 230 233 232 234 235 237 236 240 245 251
279 244 227 222 201 222 236 228 228 236 237 238 234 234 237 238 232 239 240 232 240 244 246 250 240 240 236 240 240 244 246 248 250
279 270 268 237 223 216 216 225 224 227 232 241 237 237 233 235 236 232 233 236 232 238 241 243 248 246 246 246 243 241 242 240 241
271 275 269 265 247 220 217 221 217 218 223 238 238 236 239 240 237 234 229 225 234 229 234 237 244 246 244 246 251 251 242 243 247
258 257 259 269 270 256 235 227 226 222 222 227 227 234 236 239 243 246 232 227 225 232 231 229 234 241 246 247 248 252 253 259 256
265 263 260 258 255 256 247 243 220 232 234 229 233 229 228 232 245 243 246 225 223 226 228 231 234 232 240 246 250 251 253 253 259
266 261 265 260 255 253 252 256 246 219 235 244 251 244 230 220 243 251 247 237 218 227 233 229 231 229 228 235 243 249 251 250 249
260 254 254 253 252 256 255 251 250 247 195 231 219 259 211 234 225 223 242 231 217 222 240 243 235 233 235 232 227 236 244 249 249
253 253 246 246 245 243 249 253 249 250 228 210 233 209 222 175 210 233 229 240 223 227 215 233 244 239 245 238 233 229 236 242 246
253 249 247 245 242 242 243 246 252 249 246 223 227 236 270 219 229 188 228 245 244 241 227 223 219 229 243 242 246 234 232 239 242
259 253 250 244 238 237 235 243 243 248 252 250 224 233 239 247 243 265 243 213 235 241 247 235 229 218 218 232 250 236 242 247 249